RYR84KM EGGW-LEMI

Flight info

Callsign RYR84KM
Flight time 2h 31m
Altitude 35000
Route RODNI N27 ICTAM Q63 CPT UN859 SOPIL DCT BALAN DCT LMG DCT PIMQO DCT AGN DCT ANETO N860 VLC L34 ALT
Aircraft B738/M-SDE2E3FGHIRWXY/LB1

Departure

Time 2026-05-01 09:08
Airport London Luton Airport (EGGW)

Arrival

Time 2026-05-01 11:39
Airport Region of Murcia International Airport (LEMI)
Time Latitude Longitude Altitude Speed Heading
2026-05-01 08:48 51.87927 -0.37932 533 ft 0 kts 100°
2026-05-01 08:58 51.87928 -0.37945 533 ft 4 kts 103°
2026-05-01 08:58 51.87937 -0.37985 533 ft 4 kts 129°
2026-05-01 08:58 51.87956 -0.38005 533 ft 3 kts 188°
2026-05-01 08:59 51.87964 -0.38003 533 ft 0 kts 192°
2026-05-01 09:02 51.87962 -0.38004 533 ft 1 kts 192°
2026-05-01 09:02 51.87946 -0.38009 533 ft 4 kts 192°
2026-05-01 09:02 51.87913 -0.38017 533 ft 6 kts 183°
2026-05-01 09:02 51.87865 -0.38002 533 ft 8 kts 160°
2026-05-01 09:03 51.87816 -0.37946 533 ft 10 kts 130°
2026-05-01 09:03 51.87781 -0.37844 533 ft 11 kts 115°
2026-05-01 09:03 51.87746 -0.37723 533 ft 13 kts 114°
2026-05-01 09:03 51.87708 -0.37588 533 ft 14 kts 115°
2026-05-01 09:04 51.87649 -0.37471 534 ft 14 kts 151°
2026-05-01 09:04 51.87556 -0.37461 535 ft 14 kts 198°
2026-05-01 09:04 51.87498 -0.37584 535 ft 15 kts 255°
2026-05-01 09:04 51.87469 -0.37755 535 ft 16 kts 253°
2026-05-01 09:05 51.87439 -0.37927 535 ft 14 kts 255°
2026-05-01 09:05 51.87384 -0.38057 534 ft 15 kts 205°
2026-05-01 09:05 51.87370 -0.38067 534 ft 0 kts 204°
2026-05-01 09:06 51.87363 -0.38073 534 ft 3 kts 206°
2026-05-01 09:06 51.87329 -0.38097 532 ft 8 kts 202°
2026-05-01 09:07 51.87268 -0.38099 532 ft 10 kts 145°
2026-05-01 09:07 51.87266 -0.37989 533 ft 13 kts 75°
2026-05-01 09:07 51.87338 -0.37567 535 ft 76 kts 75°
2026-05-01 09:07 51.87544 -0.36372 536 ft 143 kts 74°
2026-05-01 09:08 51.87829 -0.34627 907 ft 169 kts 78°
2026-05-01 09:08 51.88141 -0.32730 1738 ft 177 kts 81°
2026-05-01 09:08 51.88444 -0.30847 2664 ft 172 kts 81°
2026-05-01 09:08 51.88741 -0.28971 3415 ft 177 kts 83°
2026-05-01 09:09 51.88891 -0.26883 3876 ft 197 kts 94°
2026-05-01 09:09 51.88754 -0.24654 4587 ft 197 kts 108°
2026-05-01 09:09 51.88281 -0.22651 5500 ft 185 kts 124°
2026-05-01 09:09 51.87498 -0.21045 6314 ft 181 kts 142°
2026-05-01 09:10 51.86431 -0.19895 6895 ft 188 kts 158°
2026-05-01 09:10 51.85169 -0.19281 7461 ft 190 kts 175°
2026-05-01 09:10 51.83857 -0.19464 7999 ft 192 kts 197°
2026-05-01 09:10 51.82670 -0.20476 8521 ft 197 kts 218°
2026-05-01 09:11 51.81750 -0.22179 9005 ft 207 kts 236°
2026-05-01 09:11 51.81111 -0.24356 9249 ft 232 kts 247°
2026-05-01 09:11 51.80614 -0.27137 9136 ft 275 kts 254°
2026-05-01 09:11 51.80244 -0.30162 9435 ft 280 kts 256°
2026-05-01 09:12 51.79503 -0.33070 10080 ft 282 kts 234°
2026-05-01 09:12 51.78420 -0.35738 10728 ft 292 kts 234°
2026-05-01 09:12 51.77280 -0.38627 10909 ft 318 kts 235°
2026-05-01 09:12 51.76104 -0.41768 11328 ft 333 kts 237°
2026-05-01 09:13 51.74940 -0.45030 12051 ft 337 kts 237°
2026-05-01 09:13 51.73791 -0.48359 12858 ft 340 kts 238°
2026-05-01 09:13 51.72655 -0.51719 13646 ft 343 kts 238°
2026-05-01 09:13 51.71515 -0.55133 14340 ft 348 kts 238°
2026-05-01 09:14 51.70370 -0.58583 14977 ft 351 kts 238°
2026-05-01 09:14 51.69211 -0.62084 15642 ft 355 kts 238°
2026-05-01 09:14 51.68043 -0.65618 16316 ft 359 kts 238°
2026-05-01 09:14 51.66864 -0.69180 16982 ft 362 kts 238°
2026-05-01 09:15 51.65672 -0.72779 17632 ft 366 kts 238°
2026-05-01 09:15 51.64465 -0.76419 18281 ft 370 kts 238°
2026-05-01 09:15 51.63245 -0.80090 18851 ft 374 kts 238°
2026-05-01 09:15 51.62010 -0.83802 19424 ft 377 kts 238°
2026-05-01 09:16 51.60765 -0.87541 19996 ft 380 kts 238°
2026-05-01 09:16 51.59509 -0.91305 20566 ft 383 kts 238°
2026-05-01 09:16 51.58243 -0.95094 21109 ft 387 kts 237°
2026-05-01 09:17 51.55672 -1.02776 22197 ft 393 kts 237°
2026-05-01 09:17 51.54371 -1.06655 22734 ft 397 kts 237°
2026-05-01 09:17 51.51408 -1.14116 23693 ft 395 kts 218°
2026-05-01 09:18 51.49126 -1.16484 24131 ft 390 kts 200°
2026-05-01 09:18 51.43839 -1.17540 24986 ft 388 kts 171°
2026-05-01 09:19 51.38773 -1.14454 25775 ft 394 kts 155°
2026-05-01 09:19 51.36317 -1.12588 26139 ft 397 kts 155°
2026-05-01 09:19 51.33809 -1.10689 26515 ft 400 kts 155°
2026-05-01 09:20 51.28691 -1.06901 27118 ft 410 kts 156°
2026-05-01 09:20 51.23477 -1.03100 27911 ft 413 kts 156°
2026-05-01 09:21 51.18204 -0.99271 28595 ft 419 kts 156°
2026-05-01 09:21 51.15541 -0.97340 28926 ft 422 kts 156°
2026-05-01 09:21 51.10174 -0.93453 29760 ft 421 kts 156°
2026-05-01 09:22 51.04895 -0.89637 30851 ft 414 kts 156°
2026-05-01 09:22 50.99633 -0.85844 31477 ft 416 kts 156°
2026-05-01 09:23 50.97032 -0.83973 31844 ft 415 kts 156°
2026-05-01 09:23 50.91789 -0.80205 32600 ft 413 kts 157°
2026-05-01 09:24 50.86535 -0.76441 33248 ft 414 kts 156°
2026-05-01 09:24 50.83980 -0.74330 33523 ft 416 kts 150°
2026-05-01 09:24 50.79119 -0.69361 34210 ft 414 kts 148°
2026-05-01 09:25 50.74294 -0.64346 34671 ft 416 kts 148°
2026-05-01 09:25 50.69434 -0.59365 35160 ft 416 kts 149°
2026-05-01 09:26 50.66991 -0.56883 35190 ft 420 kts 149°
2026-05-01 09:26 50.59622 -0.49433 35193 ft 419 kts 149°
2026-05-01 09:27 50.52300 -0.42062 35208 ft 415 kts 149°
2026-05-01 09:28 50.47439 -0.37184 35208 ft 414 kts 149°
2026-05-01 09:28 50.42583 -0.32322 35208 ft 414 kts 149°
2026-05-01 09:29 50.35274 -0.25028 35213 ft 415 kts 149°
2026-05-01 09:30 50.27973 -0.17767 35209 ft 416 kts 149°
2026-05-01 09:30 50.20623 -0.10483 35213 ft 418 kts 149°
2026-05-01 09:31 50.15703 -0.05620 35212 ft 419 kts 149°
2026-05-01 09:32 50.08039 0.00875 35218 ft 417 kts 164°
2026-05-01 09:32 49.99648 0.04120 35217 ft 415 kts 167°
2026-05-01 09:33 49.94045 0.06271 35209 ft 414 kts 166°
2026-05-01 09:34 49.85689 0.09532 35212 ft 411 kts 166°
2026-05-01 09:34 49.77368 0.12777 35215 ft 410 kts 166°
2026-05-01 09:35 49.69105 0.15987 35214 ft 410 kts 166°
2026-05-01 09:36 49.63581 0.18185 35213 ft 410 kts 165°
2026-05-01 09:36 49.58058 0.20438 35214 ft 411 kts 165°
2026-05-01 09:37 49.52512 0.22690 35213 ft 412 kts 165°
2026-05-01 09:37 49.44162 0.26057 35215 ft 414 kts 165°
2026-05-01 09:38 49.35785 0.29422 35217 ft 415 kts 165°
2026-05-01 09:39 49.27423 0.32814 35212 ft 417 kts 164°
2026-05-01 09:39 49.21816 0.35185 35207 ft 417 kts 164°
2026-05-01 09:40 49.14348 0.38335 35211 ft 418 kts 164°
2026-05-01 09:41 49.08722 0.40692 35209 ft 418 kts 164°
2026-05-01 09:41 49.00298 0.44207 35206 ft 418 kts 163°
2026-05-01 09:42 48.94688 0.46541 35202 ft 417 kts 164°
2026-05-01 09:43 48.83572 0.51151 35202 ft 413 kts 164°
2026-05-01 09:43 48.78019 0.53439 35209 ft 411 kts 164°
2026-05-01 09:44 48.69718 0.56684 35209 ft 410 kts 165°
2026-05-01 09:45 48.64229 0.58817 35219 ft 409 kts 164°
2026-05-01 09:45 48.55946 0.62043 35219 ft 410 kts 164°
2026-05-01 09:46 48.50403 0.64209 35218 ft 412 kts 164°
2026-05-01 09:46 48.44857 0.66466 35217 ft 413 kts 163°
2026-05-01 09:47 48.39293 0.68739 35217 ft 415 kts 164°
2026-05-01 09:47 48.33697 0.71009 35223 ft 417 kts 164°
2026-05-01 09:48 48.28103 0.73269 35220 ft 419 kts 164°
2026-05-01 09:48 48.22456 0.75532 35220 ft 421 kts 164°
2026-05-01 09:49 48.16776 0.77766 35230 ft 423 kts 165°
2026-05-01 09:49 48.11068 0.80005 35220 ft 425 kts 165°
2026-05-01 09:50 48.05334 0.82253 35216 ft 427 kts 165°
2026-05-01 09:50 47.99583 0.84505 35220 ft 428 kts 165°
2026-05-01 09:51 47.93827 0.86754 35207 ft 427 kts 165°
2026-05-01 09:51 47.88083 0.88994 35212 ft 425 kts 165°
2026-05-01 09:52 47.82374 0.91213 35217 ft 423 kts 165°
2026-05-01 09:52 47.76691 0.93413 35224 ft 421 kts 165°
2026-05-01 09:53 47.71027 0.95600 35227 ft 420 kts 165°
2026-05-01 09:53 47.65366 0.97783 35226 ft 420 kts 165°
2026-05-01 09:54 47.59698 0.99964 35234 ft 421 kts 165°
2026-05-01 09:54 47.54014 1.02146 35239 ft 423 kts 165°
2026-05-01 09:55 47.48304 1.04334 35230 ft 425 kts 165°
2026-05-01 09:55 47.42523 1.06306 35230 ft 428 kts 173°
2026-05-01 09:56 47.36556 1.06391 35231 ft 430 kts 181°
2026-05-01 09:56 47.30562 1.06161 35226 ft 432 kts 181°
2026-05-01 09:57 47.24532 1.05987 35242 ft 434 kts 181°
2026-05-01 09:57 47.18534 1.05851 35237 ft 435 kts 181°
2026-05-01 09:58 47.12481 1.05719 35228 ft 435 kts 182°
2026-05-01 09:58 47.06425 1.05585 35231 ft 436 kts 182°
2026-05-01 09:59 47.00350 1.05433 35234 ft 436 kts 182°
2026-05-01 09:59 46.94272 1.05167 35229 ft 438 kts 183°
2026-05-01 10:00 46.88168 1.04881 35238 ft 438 kts 183°
2026-05-01 10:00 46.82066 1.04610 35239 ft 439 kts 183°
2026-05-01 10:01 46.75994 1.04347 35221 ft 440 kts 183°
2026-05-01 10:01 46.69865 1.04083 35233 ft 440 kts 183°
2026-05-01 10:02 46.63737 1.03820 35229 ft 440 kts 183°
2026-05-01 10:02 46.57613 1.03558 35222 ft 440 kts 183°
2026-05-01 10:03 46.51492 1.03296 35239 ft 440 kts 184°
2026-05-01 10:03 46.45399 1.03180 35237 ft 440 kts 182°
2026-05-01 10:04 46.39268 1.03152 35244 ft 440 kts 182°
2026-05-01 10:04 46.33144 1.03111 35232 ft 440 kts 183°
2026-05-01 10:05 46.27024 1.03055 35241 ft 440 kts 183°
2026-05-01 10:05 46.20897 1.02992 35245 ft 440 kts 183°
2026-05-01 10:06 46.14783 1.02931 35237 ft 440 kts 184°
2026-05-01 10:06 46.08699 1.02869 35245 ft 439 kts 184°
2026-05-01 10:07 46.02590 1.02808 35258 ft 439 kts 184°
2026-05-01 10:07 45.96485 1.02748 35240 ft 439 kts 184°
2026-05-01 10:08 45.87343 1.02657 35258 ft 437 kts 184°
2026-05-01 10:09 45.81256 1.02676 35258 ft 438 kts 179°
2026-05-01 10:09 45.75218 1.04056 35254 ft 440 kts 172°
2026-05-01 10:10 45.69258 1.05699 35250 ft 439 kts 172°
2026-05-01 10:10 45.60254 1.08070 35250 ft 438 kts 173°
2026-05-01 10:11 45.54249 1.09602 35239 ft 437 kts 172°
2026-05-01 10:11 45.48261 1.11123 35243 ft 437 kts 172°
2026-05-01 10:12 45.43285 1.12385 35240 ft 436 kts 172°
2026-05-01 10:13 45.33359 1.14899 35240 ft 436 kts 172°
2026-05-01 10:13 45.27392 1.16406 35239 ft 435 kts 172°
2026-05-01 10:14 45.18447 1.18650 35231 ft 435 kts 174°
2026-05-01 10:14 45.12472 1.18580 35243 ft 428 kts 192°
2026-05-01 10:15 45.06629 1.17029 35246 ft 427 kts 193°
2026-05-01 10:15 45.00820 1.15465 35245 ft 428 kts 193°
2026-05-01 10:16 44.94950 1.13932 35227 ft 428 kts 192°
2026-05-01 10:17 44.86154 1.11683 35230 ft 429 kts 192°
2026-05-01 10:17 44.77344 1.09444 35231 ft 429 kts 192°
2026-05-01 10:18 44.68525 1.07209 35229 ft 430 kts 192°
2026-05-01 10:19 44.62635 1.05719 35220 ft 430 kts 192°
2026-05-01 10:19 44.56752 1.04234 35220 ft 430 kts 192°
2026-05-01 10:20 44.47925 1.02013 35219 ft 429 kts 192°
2026-05-01 10:20 44.42086 1.00546 35222 ft 429 kts 192°
2026-05-01 10:21 44.33277 0.98340 35207 ft 428 kts 191°
2026-05-01 10:22 44.24514 0.96152 35215 ft 426 kts 191°
2026-05-01 10:23 44.15791 0.93981 35210 ft 423 kts 191°
2026-05-01 10:23 44.07105 0.91825 35204 ft 422 kts 191°
2026-05-01 10:24 43.95566 0.88969 35201 ft 421 kts 191°
2026-05-01 10:25 43.84041 0.86063 35205 ft 421 kts 192°
2026-05-01 10:26 43.78288 0.84503 35199 ft 421 kts 192°
2026-05-01 10:27 43.66776 0.81403 35206 ft 422 kts 192°
2026-05-01 10:28 43.59096 0.79354 35199 ft 422 kts 192°
2026-05-01 10:28 43.50441 0.77054 35202 ft 423 kts 192°
2026-05-01 10:29 43.41780 0.74758 35193 ft 423 kts 192°
2026-05-01 10:30 43.30241 0.71710 35201 ft 422 kts 192°
2026-05-01 10:31 43.18757 0.68688 35197 ft 421 kts 192°
2026-05-01 10:32 43.10140 0.66427 35204 ft 420 kts 192°
2026-05-01 10:33 42.98649 0.63423 35204 ft 419 kts 192°
2026-05-01 10:34 42.90053 0.61183 35206 ft 419 kts 192°
2026-05-01 10:34 42.84362 0.59704 35226 ft 418 kts 192°
2026-05-01 10:35 42.75805 0.57484 35247 ft 416 kts 192°
2026-05-01 10:35 42.70108 0.56010 35227 ft 416 kts 192°
2026-05-01 10:36 42.61557 0.53815 35248 ft 417 kts 192°
2026-05-01 10:37 42.55840 0.52354 35247 ft 418 kts 192°
2026-05-01 10:37 42.47250 0.50161 35245 ft 419 kts 192°
2026-05-01 10:38 42.41556 0.48710 35241 ft 419 kts 192°
2026-05-01 10:38 42.35815 0.47250 35236 ft 419 kts 192°
2026-05-01 10:39 42.30074 0.45784 35244 ft 419 kts 192°
2026-05-01 10:39 42.24341 0.44319 35233 ft 419 kts 192°
2026-05-01 10:40 42.18603 0.42856 35224 ft 419 kts 192°
2026-05-01 10:40 42.12871 0.41398 35235 ft 419 kts 192°
2026-05-01 10:41 42.07135 0.39941 35223 ft 420 kts 192°
2026-05-01 10:42 41.98521 0.37758 35217 ft 420 kts 192°
2026-05-01 10:42 41.92805 0.36317 35225 ft 420 kts 192°
2026-05-01 10:43 41.87049 0.34872 35233 ft 421 kts 192°
2026-05-01 10:43 41.81297 0.33428 35239 ft 421 kts 192°
2026-05-01 10:44 41.75533 0.31984 35224 ft 421 kts 192°
2026-05-01 10:44 41.69758 0.30547 35232 ft 421 kts 192°
2026-05-01 10:45 41.63987 0.29119 35230 ft 422 kts 192°
2026-05-01 10:45 41.58212 0.27692 35228 ft 422 kts 191°
2026-05-01 10:46 41.52442 0.26267 35220 ft 422 kts 192°
2026-05-01 10:46 41.46674 0.24845 35219 ft 422 kts 192°
2026-05-01 10:47 41.40903 0.23424 35218 ft 421 kts 191°
2026-05-01 10:47 41.35134 0.22007 35218 ft 421 kts 191°
2026-05-01 10:48 41.29400 0.20564 35211 ft 421 kts 192°
2026-05-01 10:48 41.23654 0.19116 35210 ft 420 kts 192°
2026-05-01 10:49 41.17898 0.17705 35220 ft 420 kts 192°
2026-05-01 10:49 41.12154 0.16237 35208 ft 419 kts 195°
2026-05-01 10:50 41.06564 0.14044 35218 ft 418 kts 198°
2026-05-01 10:50 41.01042 0.11743 35203 ft 419 kts 198°
2026-05-01 10:51 40.95451 0.09484 35220 ft 419 kts 198°
2026-05-01 10:51 40.89857 0.07257 35205 ft 420 kts 198°
2026-05-01 10:52 40.84270 0.05029 35221 ft 420 kts 198°
2026-05-01 10:52 40.78675 0.02774 35219 ft 420 kts 198°
2026-05-01 10:53 40.73092 0.00528 35223 ft 421 kts 198°
2026-05-01 10:53 40.67478 -0.01726 35217 ft 421 kts 198°
2026-05-01 10:54 40.61863 -0.03975 35222 ft 422 kts 197°
2026-05-01 10:54 40.56238 -0.06224 35220 ft 422 kts 197°
2026-05-01 10:55 40.50617 -0.08452 35211 ft 422 kts 197°
2026-05-01 10:55 40.45018 -0.10660 35201 ft 422 kts 197°
2026-05-01 10:56 40.39387 -0.12878 35196 ft 422 kts 197°
2026-05-01 10:56 40.33764 -0.15092 35190 ft 421 kts 197°
2026-05-01 10:57 40.28150 -0.17298 35194 ft 421 kts 197°
2026-05-01 10:57 40.22536 -0.19506 35185 ft 421 kts 198°
2026-05-01 10:58 40.16924 -0.21726 35201 ft 421 kts 198°
2026-05-01 10:58 40.11322 -0.23940 35214 ft 420 kts 198°
2026-05-01 10:59 40.05722 -0.26148 35245 ft 420 kts 198°
2026-05-01 10:59 40.00127 -0.28349 35233 ft 420 kts 198°
2026-05-01 11:00 39.94523 -0.30516 35241 ft 420 kts 198°
2026-05-01 11:00 39.88907 -0.32673 35243 ft 421 kts 198°
2026-05-01 11:01 39.83298 -0.34851 35253 ft 421 kts 198°
2026-05-01 11:01 39.77643 -0.37044 35233 ft 426 kts 198°
2026-05-01 11:02 39.71973 -0.39256 35232 ft 425 kts 198°
2026-05-01 11:02 39.66345 -0.41442 35244 ft 424 kts 198°
2026-05-01 11:03 39.60652 -0.43646 35233 ft 424 kts 198°
2026-05-01 11:03 39.55044 -0.45813 35229 ft 423 kts 199°
2026-05-01 11:04 39.49401 -0.47961 35238 ft 423 kts 196°
2026-05-01 11:04 39.43537 -0.48809 35246 ft 426 kts 185°
2026-05-01 11:05 39.37610 -0.49164 35241 ft 426 kts 185°
2026-05-01 11:05 39.31684 -0.49541 35224 ft 427 kts 186°
2026-05-01 11:06 39.25749 -0.49953 35240 ft 428 kts 186°
2026-05-01 11:06 39.19789 -0.50382 35230 ft 430 kts 186°
2026-05-01 11:07 39.10801 -0.51031 35219 ft 433 kts 186°
2026-05-01 11:07 39.04768 -0.51465 35237 ft 435 kts 187°
2026-05-01 11:08 38.98715 -0.51899 35233 ft 436 kts 186°
2026-05-01 11:09 38.89600 -0.52551 35218 ft 438 kts 186°
2026-05-01 11:09 38.83521 -0.52984 35197 ft 432 kts 187°
2026-05-01 11:10 38.77603 -0.53400 34684 ft 420 kts 187°
2026-05-01 11:10 38.74732 -0.53605 34306 ft 417 kts 187°
2026-05-01 11:10 38.71806 -0.53814 33904 ft 414 kts 187°
2026-05-01 11:10 38.68975 -0.54017 33517 ft 411 kts 187°
2026-05-01 11:11 38.66128 -0.54219 33150 ft 408 kts 187°
2026-05-01 11:11 38.63306 -0.54420 32764 ft 405 kts 187°
2026-05-01 11:11 38.60504 -0.54619 32417 ft 402 kts 187°
2026-05-01 11:11 38.57728 -0.54816 32063 ft 399 kts 186°
2026-05-01 11:12 38.54963 -0.55012 31697 ft 396 kts 186°
2026-05-01 11:12 38.52228 -0.55206 31368 ft 393 kts 186°
2026-05-01 11:12 38.49503 -0.55399 31017 ft 390 kts 186°
2026-05-01 11:12 38.46801 -0.55590 30673 ft 387 kts 186°
2026-05-01 11:13 38.44124 -0.55779 30338 ft 385 kts 185°
2026-05-01 11:13 38.41458 -0.55967 29948 ft 382 kts 185°
2026-05-01 11:13 38.39703 -0.56091 29706 ft 379 kts 185°
2026-05-01 11:13 38.37077 -0.56276 29358 ft 375 kts 185°
2026-05-01 11:14 38.34487 -0.56458 29003 ft 371 kts 185°
2026-05-01 11:14 38.31927 -0.56638 28644 ft 368 kts 185°
2026-05-01 11:14 38.29384 -0.56817 28311 ft 364 kts 185°
2026-05-01 11:14 38.26866 -0.56988 27960 ft 361 kts 184°
2026-05-01 11:15 38.24362 -0.56972 27600 ft 359 kts 180°
2026-05-01 11:15 38.21873 -0.56855 27234 ft 357 kts 180°
2026-05-01 11:15 38.19397 -0.56712 26885 ft 355 kts 179°
2026-05-01 11:15 38.16933 -0.56568 26526 ft 354 kts 180°
2026-05-01 11:16 38.14480 -0.56431 26188 ft 352 kts 180°
2026-05-01 11:16 38.12043 -0.56302 25847 ft 350 kts 180°
2026-05-01 11:16 38.09622 -0.56178 25513 ft 348 kts 180°
2026-05-01 11:16 38.07208 -0.56058 25179 ft 346 kts 180°
2026-05-01 11:17 38.04806 -0.55941 24847 ft 345 kts 180°
2026-05-01 11:17 38.02412 -0.55825 24515 ft 344 kts 180°
2026-05-01 11:17 38.00028 -0.55710 24186 ft 342 kts 180°
2026-05-01 11:17 37.97647 -0.55596 23838 ft 342 kts 180°
2026-05-01 11:18 37.95304 -0.55483 23463 ft 341 kts 180°
2026-05-01 11:18 37.92939 -0.55370 23082 ft 339 kts 180°
2026-05-01 11:18 37.90593 -0.55257 22740 ft 337 kts 180°
2026-05-01 11:18 37.88256 -0.55145 22402 ft 335 kts 180°
2026-05-01 11:19 37.85936 -0.55034 22067 ft 333 kts 180°
2026-05-01 11:19 37.83629 -0.54924 21745 ft 331 kts 180°
2026-05-01 11:19 37.81339 -0.54814 21421 ft 329 kts 180°
2026-05-01 11:19 37.79058 -0.54705 21098 ft 327 kts 180°
2026-05-01 11:20 37.76791 -0.54597 20778 ft 325 kts 180°
2026-05-01 11:20 37.74536 -0.54490 20465 ft 324 kts 180°
2026-05-01 11:20 37.72288 -0.54383 20141 ft 322 kts 180°
2026-05-01 11:20 37.70051 -0.54276 19817 ft 321 kts 180°
2026-05-01 11:21 37.67818 -0.54170 19504 ft 320 kts 180°
2026-05-01 11:21 37.65594 -0.54064 19189 ft 319 kts 180°
2026-05-01 11:21 37.63375 -0.53959 18876 ft 318 kts 180°
2026-05-01 11:21 37.61191 -0.53855 18559 ft 318 kts 180°
2026-05-01 11:22 37.58982 -0.53750 18212 ft 317 kts 180°
2026-05-01 11:22 37.56785 -0.53646 17889 ft 315 kts 180°
2026-05-01 11:22 37.54604 -0.53542 17619 ft 312 kts 180°
2026-05-01 11:22 37.52441 -0.53439 17309 ft 310 kts 180°
2026-05-01 11:23 37.50288 -0.53336 17005 ft 308 kts 180°
2026-05-01 11:23 37.48183 -0.53596 16658 ft 304 kts 200°
2026-05-01 11:23 37.46355 -0.54841 16369 ft 297 kts 220°
2026-05-01 11:23 37.44935 -0.56696 16061 ft 293 kts 236°
2026-05-01 11:24 37.43857 -0.58863 15774 ft 291 kts 243°
2026-05-01 11:24 37.43001 -0.61168 15472 ft 290 kts 248°
2026-05-01 11:24 37.41660 -0.65941 14878 ft 288 kts 253°
2026-05-01 11:25 37.41098 -0.68354 14585 ft 287 kts 255°
2026-05-01 11:25 37.40243 -0.73217 13991 ft 286 kts 260°
2026-05-01 11:25 37.39964 -0.75691 13671 ft 285 kts 263°
2026-05-01 11:26 37.39787 -0.78174 13363 ft 284 kts 266°
2026-05-01 11:26 37.39736 -0.83130 12782 ft 283 kts 271°
2026-05-01 11:26 37.39861 -0.85599 12476 ft 282 kts 275°
2026-05-01 11:27 37.40086 -0.88040 12197 ft 281 kts 277°
2026-05-01 11:27 37.40406 -0.90454 11908 ft 279 kts 280°
2026-05-01 11:27 37.40822 -0.92836 11622 ft 278 kts 283°
2026-05-01 11:27 37.41330 -0.95176 11348 ft 277 kts 285°
2026-05-01 11:28 37.41926 -0.97471 11065 ft 276 kts 289°
2026-05-01 11:28 37.42610 -0.99724 10789 ft 275 kts 291°
2026-05-01 11:28 37.43358 -1.01938 10500 ft 275 kts 293°
2026-05-01 11:29 37.45086 -1.06160 10104 ft 269 kts 302°
2026-05-01 11:29 37.46425 -1.07814 9694 ft 274 kts 330°
2026-05-01 11:29 37.50130 -1.08116 9099 ft 274 kts
2026-05-01 11:30 37.51986 -1.08478 8713 ft 273 kts 330°
2026-05-01 11:30 37.53288 -1.10146 8394 ft 270 kts 294°
2026-05-01 11:30 37.53651 -1.12430 8101 ft 267 kts 273°
2026-05-01 11:30 37.53825 -1.14737 7772 ft 269 kts 278°
2026-05-01 11:31 37.54207 -1.17069 7482 ft 268 kts 284°
2026-05-01 11:31 37.54746 -1.19313 7221 ft 267 kts 289°
2026-05-01 11:31 37.55380 -1.21479 6955 ft 266 kts 291°
2026-05-01 11:31 37.56084 -1.23630 6692 ft 265 kts 293°
2026-05-01 11:32 37.56829 -1.25753 6411 ft 265 kts 294°
2026-05-01 11:32 37.57599 -1.27860 6126 ft 264 kts 295°
2026-05-01 11:32 37.58377 -1.29954 5842 ft 263 kts 295°
2026-05-01 11:32 37.59156 -1.32039 5565 ft 263 kts 295°
2026-05-01 11:33 37.59933 -1.34098 5419 ft 256 kts 298°
2026-05-01 11:33 37.61082 -1.35730 5271 ft 248 kts 332°
2026-05-01 11:33 37.62710 -1.36192 5156 ft 239 kts
2026-05-01 11:33 37.64269 -1.35482 4755 ft 242 kts 38°
2026-05-01 11:34 37.65487 -1.34049 4497 ft 238 kts 49°
2026-05-01 11:34 37.66541 -1.32474 4259 ft 233 kts 51°
2026-05-01 11:34 37.67568 -1.30916 3997 ft 228 kts 52°
2026-05-01 11:34 37.68576 -1.29405 3776 ft 222 kts 51°
2026-05-01 11:35 37.69563 -1.27944 3540 ft 215 kts 50°
2026-05-01 11:35 37.70512 -1.26548 3348 ft 204 kts 50°
2026-05-01 11:35 37.71420 -1.25217 3093 ft 197 kts 51°
2026-05-01 11:35 37.72290 -1.23942 2968 ft 187 kts 51°
2026-05-01 11:36 37.73107 -1.22759 2889 ft 171 kts 51°
2026-05-01 11:36 37.73855 -1.21676 2788 ft 161 kts 52°
2026-05-01 11:36 37.74558 -1.20584 2470 ft 158 kts 57°
2026-05-01 11:36 37.75163 -1.19459 2261 ft 150 kts 60°
2026-05-01 11:37 37.75757 -1.18370 2165 ft 154 kts 52°
2026-05-01 11:37 37.76528 -1.17358 1951 ft 163 kts 45°
2026-05-01 11:37 37.77326 -1.16427 1792 ft 158 kts 48°
2026-05-01 11:37 37.78066 -1.15356 1369 ft 162 kts 46°
2026-05-01 11:38 37.78868 -1.14346 923 ft 160 kts 47°
2026-05-01 11:38 37.79631 -1.13368 649 ft 149 kts 47°
2026-05-01 11:38 37.80272 -1.12536 638 ft 105 kts 45°
2026-05-01 11:38 37.80633 -1.12070 642 ft 56 kts 45°
2026-05-01 11:39 37.80888 -1.11734 641 ft 50 kts 46°
2026-05-01 11:39 37.81082 -1.11490 639 ft 28 kts 45°
2026-05-01 11:39 37.81215 -1.11322 639 ft 21 kts 42°
2026-05-01 11:39 37.81333 -1.11386 640 ft 21 kts 314°
2026-05-01 11:40 37.81292 -1.11530 640 ft 20 kts 233°
2026-05-01 11:40 37.81198 -1.11657 640 ft 19 kts 224°
2026-05-01 11:40 37.81104 -1.11775 640 ft 19 kts 225°
2026-05-01 11:40 37.81013 -1.11890 640 ft 18 kts 225°
2026-05-01 11:41 37.80925 -1.12001 640 ft 18 kts 224°
2026-05-01 11:41 37.80842 -1.12110 640 ft 17 kts 226°
2026-05-01 11:41 37.80761 -1.12214 640 ft 16 kts 225°
2026-05-01 11:41 37.80682 -1.12314 640 ft 16 kts 226°
2026-05-01 11:42 37.80613 -1.12404 640 ft 9 kts 225°
2026-05-01 11:42 37.80568 -1.12461 640 ft 9 kts 225°
2026-05-01 11:42 37.80524 -1.12518 640 ft 9 kts 226°
2026-05-01 11:42 37.80482 -1.12573 640 ft 9 kts 225°
2026-05-01 11:43 37.80435 -1.12632 640 ft 10 kts 225°
2026-05-01 11:43 37.80401 -1.12715 640 ft 12 kts 282°
2026-05-01 11:43 37.80458 -1.12793 640 ft 13 kts 308°
2026-05-01 11:44 37.80366 -1.12974 640 ft 8 kts 233°
2026-05-01 11:44 37.80381 -1.13031 640 ft 7 kts 311°
2026-05-01 11:44 37.80399 -1.13054 640 ft 0 kts 315°
2026-05-01 11:44 37.80403 -1.13059 640 ft 0 kts 316°